Location: Unspecified
(0.0000°N, 0.0000°E)
Time: 13:43:10
(UTC+00:00)

Transit 2A - Pass Details

Date: 25 November 2019
Orbit: 602 x 957 km, 66.7° (Epoch: 08 December)

Event Time Altitude Azimuth Distance (km) Brightness Sun altitude
Rises 20:47:45 0° 344° (NNW) 2,973 - -41.5°
Reaches altitude 10° 20:49:57 10° 346° (NNW) 2,107 - -42.0°
Maximum altitude 20:54:43 74° 70° (ENE) 756 - -43.1°
Drops below altitude 10° 21:00:02 10° 155° (SSE) 2,344 - -44.2°
Sets 21:02:36 0° 157° (SSE) 3,336 - -44.8°
